CW1575 Weather Reports


Display with metric or nautical units.
time (UTC)temp
F
wind
direction
speed
MPH
gust
MPH
rain 1hr
in
rain 24hr
in
rain mn
in
humidity
%
barometer
mb
20150902061006 71 274 2.0 8.0 0.00 0.00 0.00 40 1019.7
20150902060506 71 294 2.0 8.0 0.00 0.00 0.00 40 1019.7
20150902060005 71 277 1.0 3.0 0.00 0.00 0.00 40 1019.3
20150902055507 72 254 2.0 7.0 0.00 0.00 0.00 40 1019.4
20150902054506 72 221 2.0 5.0 0.00 0.00 0.00 40 1019.3
20150902053505 72 291 2.0 5.0 0.00 0.00 0.00 39 1019.4
20150902053005 72 221 3.0 7.0 0.00 0.00 0.00 39 1019.4
20150902052506 72 248 2.0 6.0 0.00 0.00 0.00 39 1019.4
20150902050507 72 196 3.0 8.0 0.00 0.00 0.00 41 1019.5
20150902045505 72 234 3.0 8.0 0.00 0.00 0.00 42 1019.8
20150902045005 72 216 2.0 7.0 0.00 0.00 0.00 43 1019.7
20150902044505 71 218 4.0 12.0 0.00 0.00 0.00 43 1019.7
20150902044007 71 210 3.0 12.0 0.00 0.00 0.00 43 1020.0
20150902043506 71 177 4.0 10.0 0.00 0.00 0.00 43 1020.0
20150902043006 71 199 2.0 10.0 0.00 0.00 0.00 43 1020.0
20150902042505 70 159 3.0 12.0 0.00 0.00 0.00 43 1020.1
20150902041005 71 208 1.0 5.0 0.00 0.00 0.00 46 1020.5
20150902040506 71 175 0.0 2.0 0.00 0.00 0.00 46 1020.5
20150902040006 71 175 0.0 1.0 0.00 0.00 0.00 45 1020.2
20150902035507 71 175 0.0 1.0 0.00 0.00 0.00 45 1020.2
20150902033505 72 219 2.0 6.0 0.00 0.00 0.00 43 1020.1
20150902032506 73 186 2.0 5.0 0.00 0.00 0.00 43 1019.9
20150902032006 73 180 2.0 7.0 0.00 0.00 0.00 42 1019.9
20150902031007 74 203 2.0 3.0 0.00 0.00 0.00 41 1019.9
20150902030005 74 178 1.0 3.0 0.00 0.00 0.00 40 1019.8
20150902025507 75 182 2.0 3.0 0.00 0.00 0.00 39 1019.6
20150902024506 76 203 2.0 3.0 0.00 0.00 0.00 38 1019.5
20150902024006 76 205 2.0 5.0 0.00 0.00 0.00 37 1019.5
20150902023505 76 195 1.0 5.0 0.00 0.00 0.00 37 1019.6
20150902023005 77 179 2.0 5.0 0.00 0.00 0.00 36 1019.5
20150902022005 77 111 0.0 1.0 0.00 0.00 0.00 35 1019.1
20150902021506 78 111 0.0 1.0 0.00 0.00 0.00 34 1019.1
20150902021005 78 111 0.0 1.0 0.00 0.00 0.00 34 1019.1
20150902020505 78 111 1.0 9.0 0.00 0.00 0.00 33 1019.1
20150902020006 78 120 2.0 9.0 0.00 0.00 0.00 33 1019.1
20150902015506 78 109 2.0 6.0 0.00 0.00 0.00 32 1019.1
20150902015006 78 114 3.0 8.0 0.00 0.00 0.00 32 1019.1
20150902014506 78 112 3.0 7.0 0.00 0.00 0.00 32 1018.8
20150902014007 79 117 2.0 5.0 0.00 0.00 0.00 31 1018.6
20150902012005 80 12 0.0 2.0 0.00 0.00 0.00 31 1018.7
20150902011505 80 12 1.0 5.0 0.00 0.00 0.00 31 1018.7
20150902010505 81 266 1.0 2.0 0.00 0.00 0.00 31 1019.0
20150902010008 81 2 2.0 5.0 0.00 0.00 0.00 33 1007.5
20150902000005 84 316 3.0 6.0 0.00 0.00 0.00 28 1018.3
20150901235505 84 2 2.0 8.0 0.00 0.00 0.00 28 1018.4
20150901235006 84 293 3.0 9.0 0.00 0.00 0.00 28 1018.5
20150901234505 84 14 3.0 12.0 0.00 0.00 0.00 28 1018.4
20150901233006 85 337 3.0 12.0 0.00 0.00 0.00 27 1018.3
20150901232505 86 320 6.0 12.0 0.00 0.00 0.00 26 1018.3
20150901231505 89 317 3.0 9.0 0.00 0.00 0.00 25 1018.4
20150901231005 90 215 1.0 3.0 0.00 0.01 0.00 24 1018.2
20150901230507 91 236 2.0 5.0 0.00 0.01 0.00 23 1018.2
20150901230007 91 218 3.0 6.0 0.00 0.01 0.00 22 1017.6
20150901225005 91 207 1.0 3.0 0.00 0.02 0.00 22 1017.9
20150901224005 92 167 2.0 3.0 0.00 0.03 0.00 21 1017.9
20150901223506 92 182 1.0 7.0 0.00 0.03 0.00 24 1017.6
20150901223004 92 204 3.0 6.0 0.00 0.03 0.00 21 1017.7
20150901222006 91 163 2.0 5.0 0.00 0.03 0.00 23 1017.7
20150901220505 92 169 1.0 6.0 0.00 0.03 0.00 21 1017.4
20150901220005 92 140 4.0 12.0 0.00 0.04 0.00 20 1017.4
20150901215005 93 157 2.0 5.0 0.00 0.04 0.00 20 1017.4
20150901214505 94 128 3.0 8.0 0.00 0.04 0.00 20 1017.7
20150901214005 94 125 3.0 8.0 0.00 0.04 0.00 21 1017.6
20150901213505 94 190 2.0 5.0 0.00 0.04 0.00 21 1017.6
20150901212505 94 153 2.0 8.0 0.00 0.04 0.00 21 1017.7
20150901212004 94 211 2.0 7.0 0.00 0.04 0.00 21 1017.8
20150901211505 94 158 2.0 3.0 0.00 0.04 0.00 21 1017.8
20150901210505 93 249 3.0 6.0 0.00 0.04 0.00 19 1018.1
20150901210007 93 186 2.0 5.0 0.00 0.04 0.00 21 1018.1
20150901205506 93 144 3.0 6.0 0.00 0.04 0.00 21 1018.0
20150901204505 91 175 1.0 3.0 0.00 0.04 0.00 21 1018.0
20150901204004 91 100 3.0 6.0 0.00 0.04 0.00 21 1018.2
20150901202504 92 91 2.0 7.0 0.00 0.04 0.00 20 1018.2
20150901202005 92 340 2.0 8.0 0.00 0.04 0.00 22 1018.4
20150901201506 91 17 2.0 8.0 0.00 0.04 0.00 22 1018.4
20150901201006 91 146 1.0 7.0 0.00 0.04 0.00 20 1018.4
20150901200005 91 108 3.0 6.0 0.00 0.04 0.00 22 1018.7
20150901195005 91 175 3.0 7.0 0.00 0.04 0.00 23 1018.6
20150901194504 91 105 1.0 3.0 0.00 0.04 0.00 23 1018.6
20150901194005 91 134 3.0 7.0 0.00 0.04 0.00 23 1018.4
20150901193505 91 87 1.0 5.0 0.00 0.04 0.00 22 1018.5
20150901192505 91 223 3.0 7.0 0.00 0.04 0.00 25 1018.9
20150901192005 91 219 3.0 8.0 0.00 0.04 0.00 26 1018.9
20150901191005 91 208 3.0 7.0 0.00 0.04 0.00 26 1019.0
20150901190006 90 248 1.0 3.0 0.00 0.04 0.00 29 1019.1
20150901184505 89 247 1.0 2.0 0.00 0.04 0.00 28 1019.5
20150901184005 89 335 1.0 3.0 0.00 0.04 0.00 29 1019.5
20150901183505 89 202 2.0 5.0 0.00 0.04 0.00 27 1019.4
20150901183004 89 240 0.0 3.0 0.00 0.04 0.00 27 1019.5
20150901182506 89 355 2.0 3.0 0.00 0.04 0.00 27 1019.7
20150901182005 89 169 5.0 9.0 0.00 0.04 0.00 26 1019.4
20150901181505 88 214 3.0 5.0 0.00 0.04 0.00 29 1019.3
20150901181005 88 234 2.0 5.0 0.00 0.04 0.00 28 1019.5
20150901180505 88 41 1.0 3.0 0.00 0.04 0.00 28 1019.5
20150901180005 87 52 1.0 3.0 0.00 0.04 0.00 28 1019.5
20150901175505 87 114 5.0 8.0 0.00 0.04 0.00 27 1019.5
20150901175006 87 125 1.0 8.0 0.00 0.04 0.00 29 1019.5
20150901174505 86 162 1.0 7.0 0.00 0.04 0.00 29 1019.6
20150901174005 86 155 1.0 3.0 0.00 0.04 0.00 29 1019.9
20150901173505 86 110 2.0 7.0 0.00 0.04 0.00 31 1020.1
20150901173005 85 19 2.0 3.0 0.00 0.04 0.00 32 1020.0
20150901172505 85 113 1.0 3.0 0.00 0.04 0.00 30 1020.2
20150901172005 85 110 2.0 6.0 0.00 0.04 0.00 30 1020.2
20150901171504 85 178 1.0 3.0 0.00 0.04 0.00 31 1020.3
20150901171004 84 176 1.0 5.0 0.00 0.04 0.00 32 1020.4
20150901170505 84 145 1.0 6.0 0.00 0.04 0.00 33 1020.5
20150901170006 83 270 1.0 3.0 0.00 0.04 0.00 35 1020.5
20150901165504 83 197 2.0 3.0 0.00 0.04 0.00 35 1020.6
20150901165005 82 182 1.0 3.0 0.00 0.04 0.00 36 1020.4
20150901164505 82 117 1.0 3.0 0.00 0.04 0.00 35 1020.7
20150901164004 82 187 1.0 3.0 0.00 0.04 0.00 37 1020.6
20150901163505 81 191 2.0 3.0 0.00 0.04 0.00 36 1020.6
20150901163005 81 191 2.0 3.0 0.00 0.04 0.00 39 1020.7
20150901162506 80 200 2.0 2.0 0.00 0.04 0.00 38 1020.8
20150901162005 79 200 2.0 3.0 0.00 0.04 0.00 41 1020.8
20150901161505 79 119 2.0 3.0 0.00 0.04 0.00 43 1020.9
20150901161006 78 119 2.0 3.0 0.00 0.04 0.00 42 1020.9
20150901160505 78 106 2.0 3.0 0.00 0.04 0.00 42 1021.0
20150901160005 77 109 2.0 3.0 0.00 0.04 0.00 43 1020.7
20150901155504 77 208 1.0 3.0 0.00 0.04 0.00 45 1020.8
20150901155004 76 186 2.0 3.0 0.00 0.04 0.00 46 1020.8
20150901154505 76 184 0.0 2.0 0.00 0.04 0.00 46 1020.8
20150901154005 75 191 1.0 3.0 0.00 0.04 0.00 47 1020.7
20150901153506 74 173 1.0 3.0 0.00 0.04 0.00 49 1020.7
20150901153006 74 170 1.0 3.0 0.00 0.04 0.00 52 1020.8
20150901152505 73 119 1.0 3.0 0.00 0.04 0.00 51 1020.8
20150901152006 72 170 1.0 2.0 0.00 0.04 0.00 53 1020.7
20150901151505 72 167 2.0 3.0 0.00 0.04 0.00 56 1020.7
20150901151005 71 170 1.0 3.0 0.00 0.04 0.00 58 1020.9
20150901150506 70 162 1.0 3.0 0.00 0.04 0.00 56 1020.9
20150901150005 69 152 1.0 2.0 0.00 0.04 0.00 59 1020.8
20150901145505 68 152 1.0 3.0 0.00 0.04 0.00 60 1020.8
20150901145005 67 186 2.0 3.0 0.00 0.04 0.00 64 1020.8
20150901144506 66 186 0.0 2.0 0.00 0.04 0.00 67 1020.8
20150901144006 65 186 1.0 3.0 0.00 0.04 0.00 67 1020.7
20150901143505 64 186 1.0 3.0 0.00 0.04 0.00 71 1020.7
20150901143006 63 193 1.0 2.0 0.00 0.04 0.00 73 1020.8
20150901142504 62 193 1.0 3.0 0.00 0.04 0.00 76 1020.8
20150901142004 61 123 1.0 2.0 0.00 0.04 0.00 78 1020.9
20150901141506 60 114 0.0 2.0 0.00 0.04 0.00 81 1020.7
20150901141005 58 107 0.0 3.0 0.00 0.04 0.00 83 1020.8
20150901140506 57 108 1.0 3.0 0.00 0.04 0.00 87 1020.8
20150901140006 55 111 1.0 2.0 0.00 0.04 0.00 91 1020.9
20150901135506 55 111 0.0 2.0 0.00 0.04 0.00 92 1020.7
20150901135004 54 111 0.0 1.0 0.00 0.04 0.00 93 1020.8
20150901134504 54 111 0.0 2.0 0.00 0.04 0.00 93 1020.6
20150901134005 53 111 0.0 0.0 0.00 0.04 0.00 92 1020.5
20150901133504 53 111 1.0 2.0 0.00 0.04 0.00 91 1020.6
20150901133005 53 111 0.0 0.0 0.00 0.04 0.00 91 1020.5
20150901132505 53 111 0.0 0.0 0.00 0.04 0.00 91 1020.4
20150901132005 53 111 0.0 0.0 0.00 0.04 0.00 90 1020.3
20150901131504 53 111 0.0 2.0 0.00 0.04 0.00 90 1020.2
20150901131005 53 111 0.0 1.0 0.00 0.04 0.00 90 1020.1
20150901130505 53 111 0.0 1.0 0.00 0.04 0.00 90 1020.1
20150901130006 53 111 0.0 1.0 0.00 0.04 0.00 89 1020.0
20150901125506 53 111 0.0 1.0 0.00 0.04 0.00 89 1019.9
20150901125006 53 111 0.0 1.0 0.00 0.04 0.00 89 1020.0
20150901124504 53 111 0.0 1.0 0.00 0.04 0.00 89 1020.2
20150901124004 53 111 1.0 1.0 0.00 0.04 0.00 89 1020.0
20150901123506 53 111 0.0 0.0 0.00 0.04 0.00 89 1020.0
20150901123005 53 111 0.0 0.0 0.00 0.04 0.00 89 1019.8
20150901122505 53 111 0.0 0.0 0.00 0.04 0.00 89 1019.8
20150901122006 53 111 0.0 1.0 0.00 0.04 0.00 89 1019.8
20150901121507 53 111 0.0 1.0 0.00 0.04 0.00 89 1019.6
20150901121004 53 111 0.0 1.0 0.00 0.04 0.00 89 1019.6
20150901120505 53 111 0.0 2.0 0.00 0.04 0.00 89 1019.5
20150901120004 53 111 0.0 1.0 0.00 0.04 0.00 89 1019.8
20150901115505 53 111 0.0 1.0 0.00 0.04 0.00 89 1019.8
20150901115005 54 111 0.0 2.0 0.00 0.04 0.00 89 1019.9
20150901114505 54 111 0.0 1.0 0.00 0.04 0.00 90 1019.8
20150901114004 54 111 1.0 2.0 0.00 0.04 0.00 90 1019.8
20150901113505 54 111 0.0 0.0 0.00 0.04 0.00 89 1019.7
20150901113005 54 111 1.0 2.0 0.00 0.04 0.00 89 1019.7
20150901112505 54 111 0.0 1.0 0.00 0.04 0.00 89 1019.6
20150901112004 54 110 0.0 2.0 0.00 0.04 0.00 89 1019.7
20150901111504 54 108 1.0 2.0 0.00 0.04 0.00 89 1019.7
20150901111006 54 108 0.0 2.0 0.00 0.04 0.00 89 1019.7
20150901110504 54 108 1.0 2.0 0.00 0.04 0.00 89 1019.7
20150901110005 54 108 0.0 1.0 0.00 0.04 0.00 89 1019.7
20150901105505 54 108 0.0 1.0 0.00 0.04 0.00 89 1019.7
20150901105005 54 108 0.0 1.0 0.00 0.04 0.00 89 1019.7
20150901104504 54 108 0.0 1.0 0.00 0.04 0.00 89 1019.7
20150901104004 55 108 0.0 2.0 0.00 0.04 0.00 88 1019.6
20150901103505 55 108 0.0 1.0 0.00 0.04 0.00 88 1019.6
20150901103005 55 108 1.0 2.0 0.00 0.04 0.00 88 1019.7
20150901102505 55 108 1.0 2.0 0.00 0.04 0.00 88 1019.7
20150901102005 55 108 0.0 1.0 0.00 0.04 0.00 88 1019.7
20150901101505 55 108 0.0 0.0 0.00 0.04 0.00 88 1019.7
20150901101004 55 108 0.0 0.0 0.00 0.04 0.00 88 1019.7
20150901100504 55 108 0.0 1.0 0.00 0.04 0.00 88 1019.7
20150901100005 55 108 0.0 0.0 0.00 0.04 0.00 88 1019.9
20150901095505 55 108 0.0 1.0 0.00 0.04 0.00 88 1019.9
20150901095005 55 108 0.0 0.0 0.00 0.04 0.00 88 1019.8
20150901094505 55 108 0.0 0.0 0.00 0.04 0.00 88 1019.9
20150901094005 55 108 0.0 1.0 0.00 0.04 0.00 88 1019.9
20150901093505 55 108 0.0 1.0 0.00 0.04 0.00 88 1019.8
20150901093006 55 108 0.0 1.0 0.00 0.04 0.00 87 1019.9
20150901092505 55 108 2.0 3.0 0.00 0.04 0.00 87 1019.9
20150901092006 55 108 0.0 0.0 0.00 0.04 0.00 87 1019.9
20150901091514 55 108 0.0 1.0 0.00 0.04 0.00 87 1019.8
20150901091006 55 108 0.0 1.0 0.00 0.04 0.00 86 1019.8
20150901090505 56 108 1.0 2.0 0.00 0.04 0.00 86 1020.0
20150901090004 56 108 0.0 1.0 0.00 0.04 0.00 86 1020.1
20150901085504 56 108 0.0 1.0 0.00 0.04 0.00 86 1019.9
20150901085005 56 108 1.0 2.0 0.00 0.04 0.00 85 1019.8
20150901084505 56 108 0.0 1.0 0.00 0.04 0.00 85 1019.8
20150901084007 56 108 0.0 1.0 0.00 0.04 0.00 85 1019.8
20150901083504 56 108 0.0 1.0 0.00 0.04 0.00 85 1019.8
20150901083004 56 108 1.0 2.0 0.00 0.04 0.00 85 1019.8
20150901082504 56 108 0.0 1.0 0.00 0.04 0.00 85 1020.1
20150901082005 57 108 0.0 1.0 0.00 0.04 0.00 85 1020.2
20150901081505 57 108 0.0 1.0 0.00 0.04 0.00 85 1020.3
20150901081005 57 108 0.0 1.0 0.00 0.04 0.00 85 1020.4
20150901080505 57 108 0.0 1.0 0.00 0.04 0.00 85 1020.3
20150901080004 57 108 0.0 0.0 0.00 0.04 0.00 85 1020.4
20150901075505 57 108 0.0 1.0 0.00 0.04 0.00 85 1020.4
20150901075005 57 108 0.0 0.0 0.00 0.04 0.00 85 1020.5
20150901074504 57 108 0.0 0.0 0.00 0.04 0.00 85 1020.6
20150901074006 57 108 0.0 1.0 0.00 0.04 0.00 85 1020.6
20150901073505 57 108 0.0 0.0 0.00 0.04 0.00 85 1020.6
20150901073004 58 108 0.0 0.0 0.00 0.04 0.00 85 1020.7
20150901072504 58 108 0.0 1.0 0.00 0.04 0.00 85 1020.8
20150901072005 58 108 0.0 1.0 0.00 0.04 0.00 86 1020.8
20150901071504 58 108 0.0 3.0 0.00 0.04 0.00 86 1020.7
20150901071005 58 115 2.0 3.0 0.00 0.04 0.00 86 1020.8
20150901070506 58 165 1.0 3.0 0.00 0.04 0.00 86 1021.0
20150901070005 58 270 1.0 2.0 0.00 0.04 0.00 86 1021.0
20150901065504 58 270 0.0 1.0 0.00 0.04 0.00 86 1021.0
20150901065006 58 270 0.0 1.0 0.00 0.04 0.00 86 1021.0
20150901064504 58 270 0.0 0.0 0.00 0.04 0.00 86 1021.0
20150901064005 58 270 0.0 0.0 0.00 0.04 0.00 85 1021.0
20150901063506 58 270 0.0 1.0 0.00 0.04 0.00 85 1021.1
20150901063006 58 270 0.0 1.0 0.00 0.04 0.00 85 1021.3
20150901062504 58 270 0.0 1.0 0.00 0.04 0.00 85 1021.4